,,PA_Meas_PMT16A,,PR_Meas_QMR101_102,,RH_Meas_QMH101,,SR_Meas_QMS101,,TA_Meas_QMH101,,GenWind,,GenWind,
time,status,PA,status,PR,status,RH,status,SR,status,TA,status,DirAvg,status,SpdAvg,
2012-01-19, 00:00:04,VALID,917.158,VALID,0,VALID,96.703,VALID,0,VALID,19.8003,VALID,351,VALID,0,
2012-01-19, 00:01:04,VALID,917.165,VALID,0,VALID,96.4133,VALID,0,VALID,19.6638,VALID,351,VALID,0.00195313,
2012-01-19, 00:02:04,VALID,917.173,VALID,0,VALID,96.5811,VALID,0,VALID,19.6833,VALID,351,VALID,0.192188,
2012-01-19, 00:03:04,VALID,917.12,VALID,0,VALID,96.703,VALID,0,VALID,19.7418,VALID,351,VALID,0.527344,
2012-01-19, 00:04:04,VALID,917.109,VALID,0,VALID,96.4972,VALID,0,VALID,19.6833,VALID,351,VALID,0.505469,
2012-01-19, 00:05:04,VALID,917.113,VALID,0,VALID,96.5582,VALID,0,VALID,19.6638,VALID,351,VALID,0.692969,
2012-01-19, 00:06:04,VALID,917.129,VALID,0,VALID,96.5429,VALID,0,VALID,19.6638,VALID,351,VALID,0.711719,
2012-01-19, 00:07:04,VALID,917.087,VALID,0,VALID,96.6878,VALID,0,VALID,19.6833,VALID,351,VALID,0.721484,
2012-01-19, 00:08:04,VALID,917.12,VALID,0,VALID,96.7259,VALID,0,VALID,19.7028,VALID,351,VALID,0.641016,
2012-01-19, 00:09:04,VALID,917.117,VALID,0,VALID,96.6954,VALID,0,VALID,19.6833,VALID,351,VALID,0.211719,
2012-01-19, 00:10:04,VALID,917.089,VALID,0,VALID,96.764,VALID,0,VALID,19.7028,VALID,351,VALID,0.219141,
2012-01-19, 00:11:04,VALID,917.067,VALID,0,VALID,96.8098,VALID,0,VALID,19.7223,VALID,351,VALID,0,
2012-01-19, 00:12:04,VALID,917.075,VALID,0,VALID,96.8098,VALID,0,VALID,19.7613,VALID,351,VALID,0,
2012-01-19, 00:13:04,VALID,917.048,VALID,0,VALID,96.8021,VALID,0,VALID,19.7613,VALID,351,VALID,0,
2012-01-19, 00:14:04,VALID,917.067,VALID,0,VALID,96.764,VALID,0,VALID,19.7418,VALID,351,VALID,0,
2012-01-19, 00:15:04,VALID,917.06,VALID,0,VALID,96.8098,VALID,0,VALID,19.7628,VALID,351,VALID,0,
2012-01-19, 00:16:04,VALID,917.065,VALID,0,VALID,96.8174,VALID,0,VALID,19.7823,VALID,351,VALID,0,
2012-01-19, 00:17:04,VALID,917.058,VALID,0,VALID,96.7945,VALID,0,VALID,19.7613,VALID,351,VALID,0,
2012-01-19, 00:18:04,VALID,917.044,VALID,0,VALID,96.6344,VALID,0,VALID,19.7238,VALID,351,VALID,0.00273437,
2012-01-19, 00:19:04,VALID,917.004,VALID,0,VALID,96.5429,VALID,0,VALID,19.5648,VALID,351,VALID,0.509375,
2012-01-19, 00:20:04,VALID,916.99,VALID,0,VALID,96.4591,VALID,0,VALID,19.5288,VALID,351,VALID,0.569922,
2012-01-19, 00:21:04,VALID,917.009,VALID,0,VALID,96.4286,VALID,0,VALID,19.4688,VALID,351,VALID,0.504687,
2012-01-19, 00:22:04,VALID,916.982,VALID,0,VALID,96.5353,VALID,0,VALID,19.4883,VALID,351,VALID,0.525391,
2012-01-19, 00:23:04,VALID,916.975,VALID,0,VALID,96.5429,VALID,0,VALID,19.4493,VALID,351,VALID,0.333984,
2012-01-19, 00:24:04,VALID,917.04,VALID,0,VALID,96.5658,VALID,0,VALID,19.4298,VALID,351,VALID,0.284375,
2012-01-19, 00:25:04,VALID,917.025,VALID,0,VALID,96.5353,VALID,0,VALID,19.4298,VALID,351,VALID,0.167969,
2012-01-19, 00:26:04,VALID,917.032,VALID,0,VALID,96.5048,VALID,0,VALID,19.4103,VALID,351,VALID,0.23125,
2012-01-19, 00:27:04,VALID,917.03,VALID,0,VALID,96.5429,VALID,0,VALID,19.4103,VALID,351,VALID,0.346484,
2012-01-19, 00:28:04,VALID,917.008,VALID,0,VALID,96.642,VALID,0,VALID,19.4688,VALID,351,VALID,0.272266,
2012-01-19, 00:29:04,VALID,916.991,VALID,0,VALID,96.6573,VALID,0,VALID,19.4493,VALID,351,VALID,0.352734,
2012-01-19, 00:30:04,VALID,917.003,VALID,0,VALID,96.6954,VALID,0,VALID,19.4493,VALID,351,VALID,0.475781,
2012-01-19, 00:31:04,VALID,916.959,VALID,0,VALID,96.6954,VALID,0,VALID,19.4898,VALID,351,VALID,0.48125,
2012-01-19, 00:32:04,VALID,916.949,VALID,0,VALID,96.7411,VALID,0,VALID,19.4688,VALID,351,VALID,0.391797,
2012-01-19, 00:33:04,VALID,916.967,VALID,0,VALID,96.6573,VALID,0,VALID,19.4298,VALID,351,VALID,0,
2012-01-19, 00:34:04,VALID,916.965,VALID,0,VALID,96.6039,VALID,0,VALID,19.3908,VALID,351,VALID,0,
2012-01-19, 00:35:04,VALID,916.953,VALID,0,VALID,96.5963,VALID,0,VALID,19.3713,VALID,351,VALID,0,
2012-01-19, 00:36:04,VALID,916.913,VALID,0,VALID,96.5734,VALID,0,VALID,19.3518,VALID,351,VALID,0,
2012-01-19, 00:37:04,VALID,916.919,VALID,0,VALID,96.642,VALID,0,VALID,19.3713,VALID,351,VALID,0,
2012-01-19, 00:38:04,VALID,916.913,VALID,0,VALID,96.5353,VALID,0,VALID,19.3323,VALID,351,VALID,0,
2012-01-19, 00:39:04,VALID,916.883,VALID,0,VALID,96.4438,VALID,0,VALID,19.2543,VALID,351,VALID,0,
2012-01-19, 00:40:04,VALID,916.856,VALID,0,VALID,96.4591,VALID,0,VALID,19.2543,VALID,351,VALID,0,
2012-01-19, 00:41:04,VALID,916.832,VALID,0,VALID,96.5048,VALID,0,VALID,19.2543,VALID,351,VALID,0,
2012-01-19, 00:42:04,VALID,916.799,VALID,0,VALID,96.4819,VALID,0,VALID,19.2348,VALID,351,VALID,0,
2012-01-19, 00:43:04,VALID,916.813,VALID,0,VALID,96.6573,VALID,0,VALID,19.3143,VALID,351,VALID,0.179688,
2012-01-19, 00:44:04,VALID,916.777,VALID,0,VALID,96.6192,VALID,0,VALID,19.3128,VALID,351,VALID,0.164453,
2012-01-19, 00:45:04,VALID,916.785,VALID,0,VALID,96.6878,VALID,0,VALID,19.3518,VALID,351,VALID,0.104687,
2012-01-19, 00:46:04,VALID,916.752,VALID,0,VALID,96.6878,VALID,0,VALID,19.3713,VALID,351,VALID,0.1625,
2012-01-19, 00:47:04,VALID,916.76,VALID,0,VALID,96.7107,VALID,0,VALID,19.4118,VALID,351,VALID,0.202734,
2012-01-19, 00:48:04,VALID,916.733,VALID,0,VALID,96.6192,VALID,0,VALID,19.3533,VALID,351,VALID,0.337109,
2012-01-19, 00:49:04,VALID,916.723,VALID,0,VALID,96.4743,VALID,0,VALID,19.2948,VALID,351,VALID,0.478906,
2012-01-19, 00:50:04,VALID,916.666,VALID,0,VALID,96.6344,VALID,0,VALID,19.2738,VALID,351,VALID,0.647266,
2012-01-19, 00:51:04,VALID,916.692,VALID,0,VALID,96.8326,VALID,0,VALID,19.3713,VALID,351,VALID,0.598828,
2012-01-19, 00:52:04,VALID,916.674,VALID,0,VALID,96.8403,VALID,0,VALID,19.4118,VALID,351,VALID,0.547266,
2012-01-19, 00:53:04,VALID,916.67,VALID,0,VALID,96.9012,VALID,0,VALID,19.4493,VALID,351,VALID,0.471484,
2012-01-19, 00:54:04,VALID,916.693,VALID,0,VALID,96.886,VALID,0,VALID,19.4688,VALID,351,VALID,0.363281,
2012-01-19, 00:55:04,VALID,916.676,VALID,0,VALID,96.8326,VALID,0,VALID,19.4703,VALID,351,VALID,0.0992187,
2012-01-19, 00:56:04,VALID,916.706,VALID,0,VALID,96.7411,VALID,0,VALID,19.3908,VALID,351,VALID,0.251563,
2012-01-19, 00:57:04,VALID,916.692,VALID,0,VALID,96.6725,VALID,0,VALID,19.3128,VALID,351,VALID,0.457031,
2012-01-19, 00:58:04,VALID,916.692,VALID,0,VALID,96.825,VALID,0,VALID,19.3713,VALID,351,VALID,0.537891,
2012-01-19, 00:59:04,VALID,916.648,VALID,0,VALID,96.7335,VALID,0,VALID,19.2918,VALID,352,VALID,0.543359,
2012-01-19, 01:00:04,VALID,916.65,VALID,0,VALID,96.7411,VALID,0,VALID,19.2528,VALID,352,VALID,0.651172,
2012-01-19, 01:01:04,VALID,916.592,VALID,0,VALID,96.8936,VALID,0,VALID,19.3113,VALID,352,VALID,0.876172,
2012-01-19, 01:02:04,VALID,916.604,VALID,0,VALID,96.9089,VALID,0,VALID,19.3503,VALID,353,VALID,0.789453,
2012-01-19, 01:03:04,VALID,916.584,VALID,0,VALID,96.7793,VALID,0,VALID,19.3128,VALID,7,VALID,0.615234,
2012-01-19, 01:04:04,VALID,916.564,VALID,0,VALID,96.6878,VALID,0,VALID,19.2153,VALID,7,VALID,0.870313,
2012-01-19, 01:05:04,VALID,916.563,VALID,0,VALID,96.5734,VALID,0,VALID,19.0774,VALID,7,VALID,0.841016,
2012-01-19, 01:06:04,VALID,916.529,VALID,0,VALID,96.5963,VALID,0.107441,VALID,19.0189,VALID,7,VALID,0.896875,
2012-01-19, 01:07:04,VALID,916.511,VALID,0,VALID,96.6954,VALID,0,VALID,18.9994,VALID,7,VALID,0.693359,
2012-01-19, 01:08:04,VALID,916.504,VALID,0,VALID,96.7259,VALID,0,VALID,19.0008,VALID,7,VALID,0.732813,
2012-01-19, 01:09:04,VALID,916.505,VALID,0,VALID,96.8021,VALID,0.107441,VALID,18.9994,VALID,7,VALID,0.851563,
2012-01-19, 01:10:04,VALID,916.462,VALID,0,VALID,96.7411,VALID,0,VALID,18.9409,VALID,7,VALID,0.824219,
2012-01-19, 01:11:04,VALID,916.459,VALID,0,VALID,96.886,VALID,0,VALID,19.0008,VALID,7,VALID,0.816406,
2012-01-19, 01:12:04,VALID,916.444,VALID,0,VALID,96.9089,VALID,0,VALID,18.9799,VALID,7,VALID,0.728906,
2012-01-19, 01:13:04,VALID,916.417,VALID,0,VALID,96.9698,VALID,0.107441,VALID,18.9994,VALID,7,VALID,1.02383,
2012-01-19, 01:14:04,VALID,916.393,VALID,0,VALID,97.008,VALID,0.107441,VALID,19.0203,VALID,7,VALID,0.942578,
2012-01-19, 01:15:04,VALID,916.377,VALID,0,VALID,97.0537,VALID,0,VALID,19.0384,VALID,7,VALID,1.16484,
2012-01-19, 01:16:04,VALID,916.369,VALID,0,VALID,97.0918,VALID,0,VALID,19.0983,VALID,7,VALID,0.984766,
2012-01-19, 01:17:04,VALID,916.361,VALID,0,VALID,97.1223,VALID,0.107441,VALID,19.0969,VALID,7,VALID,0.984766,
2012-01-19, 01:18:04,VALID,916.337,VALID,0,VALID,97.0461,VALID,0,VALID,19.0788,VALID,7,VALID,0.964844,
2012-01-19, 01:19:04,VALID,916.356,VALID,0,VALID,97.1071,VALID,0,VALID,19.0788,VALID,8,VALID,1.20195,
2012-01-19, 01:20:04,VALID,916.289,VALID,0,VALID,97.0994,VALID,0.107441,VALID,19.0384,VALID,8,VALID,1.10664,
2012-01-19, 01:21:04,VALID,916.291,VALID,0,VALID,97.1223,VALID,0,VALID,19.0189,VALID,8,VALID,1.14297,
2012-01-19, 01:22:04,VALID,916.288,VALID,0,VALID,97.1604,VALID,0,VALID,19.0189,VALID,8,VALID,1.16836,
2012-01-19, 01:23:04,VALID,916.247,VALID,0,VALID,97.1757,VALID,0,VALID,19.0579,VALID,8,VALID,1.21172,
2012-01-19, 01:24:04,VALID,916.221,VALID,0,VALID,97.2214,VALID,0,VALID,19.0579,VALID,91,VALID,1.12383,
2012-01-19, 01:25:04,VALID,916.193,VALID,0,VALID,97.2062,VALID,0.107441,VALID,19.0384,VALID,140,VALID,1.07773,
2012-01-19, 01:26:04,VALID,916.198,VALID,0,VALID,97.2214,VALID,0,VALID,19.0593,VALID,140,VALID,1.08203,
2012-01-19, 01:27:04,VALID,916.169,VALID,0,VALID,97.229,VALID,0,VALID,19.0593,VALID,140,VALID,0.978516,
2012-01-19, 01:28:04,VALID,916.157,VALID,0,VALID,97.1833,VALID,0,VALID,19.0008,VALID,140,VALID,0.801562,
2012-01-19, 01:29:04,VALID,916.146,VALID,0,VALID,97.2138,VALID,0,VALID,18.9619,VALID,140,VALID,0.757422,
2012-01-19, 01:30:04,VALID,916.133,VALID,0,VALID,97.229,VALID,0.107441,VALID,18.9409,VALID,141,VALID,0.949609,
2012-01-19, 01:31:04,VALID,916.091,VALID,0,VALID,97.2672,VALID,0,VALID,18.9619,VALID,140,VALID,0.846875,
2012-01-19, 01:32:04,VALID,916.101,VALID,0,VALID,97.3053,VALID,0,VALID,18.9619,VALID,140,VALID,0.823828,
2012-01-19, 01:33:04,VALID,916.095,VALID,0,VALID,97.3586,VALID,0.107441,VALID,18.9994,VALID,140,VALID,0.765234,
2012-01-19, 01:34:04,VALID,916.086,VALID,0,VALID,97.3663,VALID,0,VALID,19.0189,VALID,140,VALID,0.941016,
2012-01-19, 01:35:04,VALID,916.072,VALID,0,VALID,97.412,VALID,0,VALID,19.0579,VALID,140,VALID,1.04961,
2012-01-19, 01:36:04,VALID,916.039,VALID,0,VALID,97.412,VALID,0,VALID,19.1178,VALID,140,VALID,0.976563,
2012-01-19, 01:37:04,VALID,916.013,VALID,0,VALID,97.4273,VALID,0,VALID,19.1568,VALID,140,VALID,1.07734,
2012-01-19, 01:38:04,VALID,916.008,VALID,0,VALID,97.4349,VALID,0,VALID,19.1763,VALID,140,VALID,1.06289,
2012-01-19, 01:39:04,VALID,916.003,VALID,0,VALID,97.3663,VALID,0,VALID,19.1373,VALID,140,VALID,0.837891,
2012-01-19, 01:40:04,VALID,915.982,VALID,0,VALID,97.3205,VALID,0,VALID,19.0983,VALID,120,VALID,0.767578,
2012-01-19, 01:41:04,VALID,915.968,VALID,0,VALID,97.3434,VALID,0,VALID,19.0593,VALID,120,VALID,0.719531,
2012-01-19, 01:42:04,VALID,915.978,VALID,0,VALID,97.3891,VALID,0,VALID,19.0788,VALID,120,VALID,0.702734,
2012-01-19, 01:43:04,VALID,915.978,VALID,0,VALID,97.3815,VALID,0,VALID,19.0593,VALID,120,VALID,0.596875,
2012-01-19, 01:44:04,VALID,915.95,VALID,0,VALID,97.3968,VALID,0,VALID,19.0384,VALID,120,VALID,0.801953,
2012-01-19, 01:45:04,VALID,915.947,VALID,0,VALID,97.3281,VALID,0,VALID,19.0398,VALID,120,VALID,0.535547,
2012-01-19, 01:46:04,VALID,915.945,VALID,0,VALID,97.29,VALID,0,VALID,18.9619,VALID,120,VALID,0.410156,
2012-01-19, 01:47:04,VALID,915.912,VALID,0,VALID,97.3358,VALID,0,VALID,18.9034,VALID,120,VALID,0.632422,
2012-01-19, 01:48:04,VALID,915.904,VALID,0,VALID,97.4196,VALID,0,VALID,18.8824,VALID,120,VALID,0.647656,
2012-01-19, 01:49:04,VALID,915.908,VALID,0,VALID,97.5416,VALID,0,VALID,18.9409,VALID,107,VALID,0.850391,
2012-01-19, 01:50:04,VALID,915.903,VALID,0,VALID,97.5111,VALID,0,VALID,18.9604,VALID,99,VALID,0.732813,
2012-01-19, 01:51:04,VALID,915.901,VALID,0,VALID,97.5111,VALID,0,VALID,18.9799,VALID,99,VALID,0.661719,
2012-01-19, 01:52:04,VALID,915.891,VALID,0,VALID,97.5264,VALID,0,VALID,18.9994,VALID,99,VALID,0.758594,
2012-01-19, 01:53:04,VALID,915.862,VALID,0,VALID,97.5111,VALID,0,VALID,19.0203,VALID,123,VALID,0.875391,
2012-01-19, 01:54:04,VALID,915.831,VALID,0,VALID,97.5111,VALID,0,VALID,19.0203,VALID,123,VALID,1.20703,
2012-01-19, 01:55:04,VALID,915.829,VALID,0,VALID,97.4882,VALID,0,VALID,18.9799,VALID,123,VALID,1.21992,
2012-01-19, 01:56:04,VALID,915.852,VALID,0,VALID,97.4806,VALID,0,VALID,18.9814,VALID,123,VALID,1.18594,
2012-01-19, 01:57:04,VALID,915.85,VALID,0,VALID,97.4349,VALID,0,VALID,18.9229,VALID,123,VALID,0.961328,
2012-01-19, 01:58:04,VALID,915.89,VALID,0,VALID,97.3815,VALID,0,VALID,18.8254,VALID,129,VALID,0.892578,
2012-01-19, 01:59:04,VALID,915.888,VALID,0,VALID,97.3815,VALID,0,VALID,18.7265,VALID,141,VALID,0.751953,
2012-01-19, 02:00:04,VALID,915.909,VALID,0,VALID,97.4196,VALID,0,VALID,18.7265,VALID,141,VALID,1.06289,
2012-01-19, 02:01:04,VALID,915.893,VALID,0,VALID,97.4882,VALID,0,VALID,18.7265,VALID,141,VALID,1.12148,
2012-01-19, 02:02:04,VALID,915.903,VALID,0,VALID,97.4654,VALID,0.107441,VALID,18.707,VALID,141,VALID,1.0375,
2012-01-19, 02:03:04,VALID,915.894,VALID,0,VALID,97.5035,VALID,0,VALID,18.6875,VALID,141,VALID,1.1125,
2012-01-19, 02:04:04,VALID,915.89,VALID,0,VALID,97.5264,VALID,0,VALID,18.668,VALID,141,VALID,0.912891,
2012-01-19, 02:05:04,VALID,915.875,VALID,0,VALID,97.5264,VALID,0,VALID,18.6889,VALID,141,VALID,1.00859,
2012-01-19, 02:06:04,VALID,915.89,VALID,0,VALID,97.5797,VALID,0,VALID,18.6875,VALID,141,VALID,0.957031,
2012-01-19, 02:07:04,VALID,915.879,VALID,0,VALID,97.5721,VALID,0,VALID,18.668,VALID,141,VALID,0.982031,
2012-01-19, 02:08:04,VALID,915.858,VALID,0,VALID,97.5416,VALID,0,VALID,18.6485,VALID,141,VALID,1.10586,
2012-01-19, 02:09:04,VALID,915.836,VALID,0,VALID,97.5569,VALID,0,VALID,18.6499,VALID,139,VALID,1.20195,
2012-01-19, 02:10:04,VALID,915.867,VALID,0,VALID,97.5873,VALID,0,VALID,18.6889,VALID,138,VALID,1.18125,
2012-01-19, 02:11:04,VALID,915.832,VALID,0,VALID,97.6255,VALID,0,VALID,18.7279,VALID,138,VALID,0.939844,
2012-01-19, 02:12:04,VALID,915.823,VALID,0,VALID,97.6865,VALID,0,VALID,18.7669,VALID,138,VALID,1.12148,
2012-01-19, 02:13:04,VALID,915.809,VALID,0,VALID,97.6712,VALID,0,VALID,18.7864,VALID,137,VALID,1.2918,
2012-01-19, 02:14:04,VALID,915.791,VALID,0,VALID,97.6407,VALID,0,VALID,18.7864,VALID,137,VALID,1.15547,
2012-01-19, 02:15:04,VALID,915.756,VALID,0,VALID,97.6636,VALID,0,VALID,18.8059,VALID,128,VALID,1.2207,
2012-01-19, 02:16:04,VALID,915.762,VALID,0,VALID,97.6636,VALID,0,VALID,18.8254,VALID,128,VALID,1.03242,
2012-01-19, 02:17:04,VALID,915.762,VALID,0,VALID,97.6255,VALID,0,VALID,18.8059,VALID,128,VALID,0.833203,
2012-01-19, 02:18:04,VALID,915.78,VALID,0,VALID,97.6255,VALID,0,VALID,18.7864,VALID,127,VALID,0.774219,
2012-01-19, 02:19:04,VALID,915.759,VALID,0,VALID,97.6331,VALID,0,VALID,18.8059,VALID,128,VALID,0.9875,
2012-01-19, 02:20:04,VALID,915.771,VALID,0,VALID,97.6255,VALID,0.107441,VALID,18.785,VALID,128,VALID,0.783203,
2012-01-19, 02:21:04,VALID,915.793,VALID,0,VALID,97.6178,VALID,0,VALID,18.7655,VALID,127,VALID,0.503906,
2012-01-19, 02:22:04,VALID,915.77,VALID,0,VALID,97.6255,VALID,0,VALID,18.7669,VALID,128,VALID,0.716406,
2012-01-19, 02:23:04,VALID,915.761,VALID,0,VALID,97.6178,VALID,0,VALID,18.7474,VALID,128,VALID,0.544922,
2012-01-19, 02:24:04,VALID,915.767,VALID,0,VALID,97.6102,VALID,0,VALID,18.7474,VALID,140,VALID,0.699609,
2012-01-19, 02:25:04,VALID,915.738,VALID,0,VALID,97.6712,VALID,0,VALID,18.7669,VALID,140,VALID,1.18945,
2012-01-19, 02:26:04,VALID,915.733,VALID,0,VALID,97.6712,VALID,0,VALID,18.7669,VALID,140,VALID,0.648047,
2012-01-19, 02:27:04,VALID,915.713,VALID,0,VALID,97.6407,VALID,0,VALID,18.746,VALID,140,VALID,0.924219,
2012-01-19, 02:28:04,VALID,915.733,VALID,0,VALID,97.656,VALID,0,VALID,18.746,VALID,140,VALID,0.462891,
2012-01-19, 02:29:04,VALID,915.73,VALID,0,VALID,97.6407,VALID,0.107441,VALID,18.707,VALID,140,VALID,0.821484,
2012-01-19, 02:30:04,VALID,915.72,VALID,0,VALID,97.6483,VALID,0.107441,VALID,18.7084,VALID,140,VALID,0.848047,
2012-01-19, 02:31:04,VALID,915.719,VALID,0,VALID,97.656,VALID,0,VALID,18.7084,VALID,140,VALID,0.903125,
2012-01-19, 02:32:04,VALID,915.72,VALID,0,VALID,97.6331,VALID,0,VALID,18.6694,VALID,140,VALID,0.741406,
2012-01-19, 02:33:04,VALID,915.698,VALID,0,VALID,97.6255,VALID,0,VALID,18.6095,VALID,140,VALID,0.683984,
2012-01-19, 02:34:04,VALID,915.698,VALID,0,VALID,97.6331,VALID,0,VALID,18.6095,VALID,140,VALID,1.06641,
2012-01-19, 02:35:04,VALID,915.739,VALID,0,VALID,97.6636,VALID,0.107441,VALID,18.59,VALID,140,VALID,1.11836,
2012-01-19, 02:36:04,VALID,915.759,VALID,0,VALID,97.656,VALID,0,VALID,18.5705,VALID,140,VALID,0.86875,
2012-01-19, 02:37:04,VALID,915.724,VALID,0,VALID,97.6636,VALID,0.107441,VALID,18.5705,VALID,140,VALID,0.805859,
2012-01-19, 02:38:04,VALID,915.764,VALID,0,VALID,97.6788,VALID,0,VALID,18.5511,VALID,140,VALID,0.665625,
2012-01-19, 02:39:04,VALID,915.775,VALID,0,VALID,97.7169,VALID,0,VALID,18.5511,VALID,140,VALID,0.741406,
2012-01-19, 02:40:04,VALID,915.749,VALID,0,VALID,97.6941,VALID,0,VALID,18.5525,VALID,140,VALID,0.95625,
2012-01-19, 02:41:04,VALID,915.715,VALID,0,VALID,97.6941,VALID,0,VALID,18.5316,VALID,140,VALID,0.894531,
2012-01-19, 02:42:04,VALID,915.675,VALID,0,VALID,97.7169,VALID,0,VALID,18.572,VALID,139,VALID,0.986719,
2012-01-19, 02:43:04,VALID,915.705,VALID,0,VALID,97.7398,VALID,0,VALID,18.5511,VALID,139,VALID,0.728125,
2012-01-19, 02:44:04,VALID,915.705,VALID,0,VALID,97.7474,VALID,0,VALID,18.59,VALID,139,VALID,0.985937,
2012-01-19, 02:45:04,VALID,915.692,VALID,0,VALID,97.7322,VALID,0.107441,VALID,18.5705,VALID,135,VALID,0.948828,
2012-01-19, 02:46:04,VALID,915.707,VALID,0,VALID,97.7703,VALID,0.107441,VALID,18.6109,VALID,128,VALID,0.937109,
2012-01-19, 02:47:04,VALID,915.693,VALID,0,VALID,97.7398,VALID,0,VALID,18.5914,VALID,128,VALID,0.980078,
2012-01-19, 02:48:04,VALID,915.712,VALID,0,VALID,97.7474,VALID,0,VALID,18.6109,VALID,128,VALID,1.26914,
2012-01-19, 02:49:04,VALID,915.671,VALID,0,VALID,97.7169,VALID,0,VALID,18.59,VALID,128,VALID,1.12266,
2012-01-19, 02:50:04,VALID,915.647,VALID,0,VALID,97.7169,VALID,0.107441,VALID,18.572,VALID,128,VALID,1.16484,
2012-01-19, 02:51:04,VALID,915.652,VALID,0,VALID,97.7322,VALID,0,VALID,18.533,VALID,128,VALID,1.11836,
2012-01-19, 02:52:04,VALID,915.659,VALID,0,VALID,97.7398,VALID,0,VALID,18.533,VALID,128,VALID,1.09531,
2012-01-19, 02:53:04,VALID,915.681,VALID,0,VALID,97.7474,VALID,0,VALID,18.533,VALID,138,VALID,1.18711,
2012-01-19, 02:54:04,VALID,915.66,VALID,0,VALID,97.7246,VALID,0,VALID,18.5135,VALID,146,VALID,0.902344,
2012-01-19, 02:55:04,VALID,915.669,VALID,0,VALID,97.7017,VALID,0.107441,VALID,18.4536,VALID,127,VALID,0.891016,
2012-01-19, 02:56:04,VALID,915.684,VALID,0,VALID,97.7093,VALID,0,VALID,18.4146,VALID,133,VALID,1.29648,
2012-01-19, 02:57:04,VALID,915.681,VALID,0,VALID,97.7474,VALID,0.107441,VALID,18.4146,VALID,137,VALID,1.32891,
2012-01-19, 02:58:04,VALID,915.661,VALID,0,VALID,97.7627,VALID,0.107441,VALID,18.4341,VALID,130,VALID,1.59375,
2012-01-19, 02:59:04,VALID,915.62,VALID,0,VALID,97.7932,VALID,0.107441,VALID,18.4536,VALID,132,VALID,1.48164,
2012-01-19, 03:00:04,VALID,915.613,VALID,0,VALID,97.7932,VALID,0,VALID,18.4759,VALID,133,VALID,1.44492,
2012-01-19, 03:01:04,VALID,915.62,VALID,0,VALID,97.7932,VALID,0,VALID,18.4341,VALID,132,VALID,1.30703,
2012-01-19, 03:02:04,VALID,915.593,VALID,0,VALID,97.7932,VALID,0,VALID,18.4355,VALID,132,VALID,1.10117,
2012-01-19, 03:03:04,VALID,915.549,VALID,0,VALID,97.7779,VALID,0,VALID,18.4355,VALID,132,VALID,1.51289,
2012-01-19, 03:04:04,VALID,915.541,VALID,0,VALID,97.7932,VALID,0,VALID,18.4355,VALID,139,VALID,1.1918,
2012-01-19, 03:05:04,VALID,915.541,VALID,0,VALID,97.8084,VALID,0,VALID,18.4355,VALID,136,VALID,1.59375,
2012-01-19, 03:06:04,VALID,915.513,VALID,0,VALID,97.8237,VALID,0,VALID,18.4355,VALID,138,VALID,1.51719,
2012-01-19, 03:07:04,VALID,915.478,VALID,0,VALID,97.8008,VALID,0,VALID,18.4355,VALID,140,VALID,1.07305,
2012-01-19, 03:08:04,VALID,915.535,VALID,0,VALID,97.8389,VALID,0,VALID,18.4341,VALID,139,VALID,1.19453,
2012-01-19, 03:09:04,VALID,915.538,VALID,0,VALID,97.816,VALID,0,VALID,18.4355,VALID,144,VALID,0.826172,
2012-01-19, 03:10:04,VALID,915.552,VALID,0,VALID,97.816,VALID,0.107441,VALID,18.4355,VALID,132,VALID,1.05,
2012-01-19, 03:11:04,VALID,915.528,VALID,0,VALID,97.816,VALID,0,VALID,18.416,VALID,134,VALID,1.3418,
2012-01-19, 03:12:04,VALID,915.573,VALID,0,VALID,97.8008,VALID,0,VALID,18.416,VALID,137,VALID,0.986328,
2012-01-19, 03:13:04,VALID,915.551,VALID,0,VALID,97.8313,VALID,0.107441,VALID,18.416,VALID,132,VALID,1.30898,
2012-01-19, 03:14:04,VALID,915.592,VALID,0,VALID,97.8313,VALID,0,VALID,18.4355,VALID,132,VALID,0.921094,
2012-01-19, 03:15:04,VALID,915.578,VALID,0,VALID,97.816,VALID,0,VALID,18.4355,VALID,132,VALID,0.765625,
2012-01-19, 03:16:04,VALID,915.565,VALID,0,VALID,97.8618,VALID,0,VALID,18.4341,VALID,132,VALID,1.20313,
2012-01-19, 03:17:04,VALID,915.517,VALID,0,VALID,97.8618,VALID,0,VALID,18.455,VALID,132,VALID,1.06523,
2012-01-19, 03:18:04,VALID,915.48,VALID,0,VALID,97.8465,VALID,0,VALID,18.455,VALID,132,VALID,1.27656,
2012-01-19, 03:19:04,VALID,915.474,VALID,0,VALID,97.8542,VALID,0.107441,VALID,18.4341,VALID,126,VALID,0.975,
2012-01-19, 03:20:04,VALID,915.493,VALID,0,VALID,97.816,VALID,0,VALID,18.416,VALID,131,VALID,0.984375,
2012-01-19, 03:21:04,VALID,915.469,VALID,0,VALID,97.8313,VALID,0,VALID,18.416,VALID,132,VALID,1.17344,
2012-01-19, 03:22:04,VALID,915.473,VALID,0,VALID,97.8542,VALID,0,VALID,18.3965,VALID,131,VALID,1.1957,
2012-01-19, 03:23:04,VALID,915.473,VALID,0,VALID,97.8313,VALID,0,VALID,18.3965,VALID,131,VALID,1.26211,
2012-01-19, 03:24:04,VALID,915.475,VALID,0,VALID,97.8618,VALID,0,VALID,18.3965,VALID,133,VALID,1.80547,
2012-01-19, 03:25:04,VALID,915.485,VALID,0,VALID,97.8694,VALID,0,VALID,18.3965,VALID,136,VALID,1.03789,
2012-01-19, 03:26:04,VALID,915.473,VALID,0,VALID,97.8542,VALID,0.107441,VALID,18.377,VALID,136,VALID,1.35781,
2012-01-19, 03:27:04,VALID,915.477,VALID,0,VALID,97.8542,VALID,0.107441,VALID,18.377,VALID,136,VALID,1.375,
2012-01-19, 03:28:04,VALID,915.485,VALID,0,VALID,97.8542,VALID,0,VALID,18.3965,VALID,136,VALID,1.13008,
2012-01-19, 03:29:04,VALID,915.46,VALID,0,VALID,97.8542,VALID,0,VALID,18.3575,VALID,116,VALID,1.46055,
2012-01-19, 03:30:04,VALID,915.48,VALID,0,VALID,97.8847,VALID,0,VALID,18.3575,VALID,121,VALID,1.1668,
2012-01-19, 03:31:04,VALID,915.485,VALID,0,VALID,97.9152,VALID,0,VALID,18.377,VALID,132,VALID,1.6332,
2012-01-19, 03:32:04,VALID,915.502,VALID,0,VALID,97.8618,VALID,0,VALID,18.3756,VALID,117,VALID,1.2918,
2012-01-19, 03:33:04,VALID,915.511,VALID,0,VALID,97.9152,VALID,0,VALID,18.416,VALID,122,VALID,1.82578,
2012-01-19, 03:34:04,VALID,915.529,VALID,0,VALID,97.8999,VALID,0,VALID,18.416,VALID,113,VALID,1.3875,
2012-01-19, 03:35:04,VALID,915.526,VALID,0,VALID,97.877,VALID,0,VALID,18.416,VALID,132,VALID,1.31523,
2012-01-19, 03:36:04,VALID,915.522,VALID,0,VALID,97.8847,VALID,0,VALID,18.416,VALID,133,VALID,1.36328,
2012-01-19, 03:37:04,VALID,915.542,VALID,0,VALID,97.8847,VALID,0,VALID,18.3756,VALID,116,VALID,1.82617,
2012-01-19, 03:38:04,VALID,915.549,VALID,0,VALID,97.8923,VALID,0,VALID,18.3965,VALID,123,VALID,1.11367,
2012-01-19, 03:39:04,VALID,915.557,VALID,0,VALID,97.8923,VALID,0,VALID,18.3965,VALID,124,VALID,1.18047,
2012-01-19, 03:40:04,VALID,915.549,VALID,0,VALID,97.8923,VALID,0,VALID,18.377,VALID,123,VALID,0.842969,
2012-01-19, 03:41:04,VALID,915.533,VALID,0,VALID,97.8923,VALID,0,VALID,18.3965,VALID,123,VALID,1.01406,
2012-01-19, 03:42:04,VALID,915.552,VALID,0,VALID,97.8618,VALID,0,VALID,18.377,VALID,123,VALID,0.907812,
2012-01-19, 03:43:04,VALID,915.594,VALID,0,VALID,97.877,VALID,0,VALID,18.377,VALID,123,VALID,0.856641,
2012-01-19, 03:44:04,VALID,915.619,VALID,0,VALID,97.8923,VALID,0,VALID,18.377,VALID,123,VALID,1.31836,
2012-01-19, 03:45:04,VALID,915.631,VALID,0,VALID,97.938,VALID,0,VALID,18.416,VALID,123,VALID,0.9125,